ENDU

Bardufoss

Airport
ICAO code
ENDU
Summary
ICAO Region
EUR
ICAO Territory
Location

Bardufoss,

Elevation
252 ft
Coordinates
69° 3' 21" N , 18° 32' 25" E
KCC
Airport CFIT
Altimeter Temperature Error Correction
Airport GND
Aircraft Ground De/Anti Icing
Airport RE
Landing on Contaminated Runways
Airport WX
Low Level Turbulence
Metar
ENDU 222120Z 23002KT 9999 FEW070 18/15 Q1012 RMK WIND 1100FT 32003KT WIND 2200FT 09006KT

Description

Civil/Military (RNoAF) airport serving the Målselvdalen valley region of northern Norway.

Climatology

Subarctic climate (Köppen climate classification Dfc) - Although not far from the coast, Bardufoss and Målselvdalen is known for a somewhat more continental climate, and hence, colder winters (but with less humidity and little wind) compared to the coastal areas.

Runways

Designator Length Width Surface Rops
10/28 2443 45 ASP Yes/Yes

Airport map

Aerial View

SKYbrary Partners:

Safety knowledge contributed by: